Location: Maddington
(51.2000°N, 1.9167°W)
Time: 07:09:42
(UTC+00:00)

USA 229 DEB - Pass Details

Date: 18 September 2020
Orbit: 971 x 1241 km, 63.4° (Epoch: 14 October)

Event Time Altitude Azimuth Distance (km) Brightness Sun altitude
Rises 18:40:03 0° 240° (WSW) 3,709 7.5 -4.9°
Reaches altitude 10° 18:42:38 10° 244° (WSW) 2,788 6.9 -5.3°
Maximum altitude 18:49:06 59° 324° (NW) 1,206 4.3 -6.3°
Drops below altitude 10° 18:56:03 10° 43° (NE) 2,977 5.7 -7.3°
Sets 18:58:53 0° 48° (NE) 3,979 6.3 -7.8°
